Powrót do katalogu

YAOGAN-43 03A

AktywnyMilitariaVLEO
NORAD 61617·PAYLOAD·🇨🇳 China

Wystrzelony Oct 23, 2024 z Xichang Satellite Launch Center

Loading…

Następne Przeloty (najbliższe 24 godziny)

TLE

ŚwieżeSource: Space-Track

Epoka: Sep 14, 2026, 15:47 UTC

1 61617U 24190A   26257.65779604  .00005785  00000-0  24117-3 0  9996
2 61617  34.9923 354.9912 0004179  63.8419 296.2726 15.23041189105518

Śledź YAOGAN-43 03A w czasie rzeczywistym z AllMySat

Download on the App Store